DW8266 Weather Reports


time (UTC)temp
F
wind
direction
speed
knots
gust
knots
rain 1hr
in
rain 24hr
in
rain mn
in
humidity
%
barometer
mb
20260506184600 87 157 0.0 5.2 0.00 0.00 0.00 85 1009.4
20260506183108 86 160 0.9 4.3 0.00 0.00 0.00 86 1009.6
20260506183002 86 160 0.9 4.3 0.00 0.00 0.00 86 1009.6
20260506181600 85 146 0.0 4.3 0.00 0.00 0.00 85 1009.9
20260506180006 84 154 0.9 2.6 0.00 0.00 0.00 87 1010.1
20260506174608 83 161 0.0 4.3 0.00 0.00 0.00 88 1010.4
20260506171600 82 160 0.9 3.5 0.00 0.00 0.00 88 1010.8
20260506170100 82 153 0.0 4.3 0.00 0.00 0.00 88 1010.9
20260506170002 82 153 0.9 4.3 0.00 0.00 0.00 89 1010.9
20260506164601 82 150 0.9 4.3 0.00 0.00 0.00 90 1011.0
20260506163103 80 169 0.9 5.2 0.00 0.00 0.00 91 1010.8
20260506161611 80 154 0.0 4.3 0.00 0.00 0.00 90 1010.4
20260506160001 80 150 0.9 2.6 0.00 0.00 0.00 90 1010.4
20260506154602 80 92 0.9 2.6 0.00 0.00 0.00 91 1010.3
20260506153059 80 155 0.0 2.6 0.00 0.00 0.00 90 1010.4
20260506151600 80 154 0.0 2.6 0.00 0.00 0.00 91 1009.9
20260506150104 79 150 0.0 4.3 0.00 0.00 0.00 92 1009.8
20260506150002 79 150 0.0 4.3 0.00 0.00 0.00 92 1009.8
20260506144612 79 121 0.0 1.7 0.00 0.00 0.00 92 1009.7
20260506143059 79 153 0.9 3.5 0.00 0.00 0.00 93 1009.3
20260506141601 78 169 0.0 4.3 0.00 0.00 0.00 93 1009.4
20260506140122 78 63 0.0 2.6 0.00 0.00 0.00 94 1009.4
20260506140003 78 137 0.0 1.7 0.00 0.00 0.00 94 1009.4
20260506134600 77 129 0.0 1.7 0.00 0.00 0.00 94 1009.6
20260506133135 77 152 0.0 1.7 0.00 0.00 0.00 94 1009.6
20260506131600 77 151 0.0 1.7 0.00 0.00 0.00 94 1009.7
20260506130139 76 154 0.0 0.9 0.00 0.00 0.00 94 1009.7
20260506130003 76 154 0.0 0.9 0.00 0.00 0.00 94 1009.7
20260506124600 76 154 0.0 0.9 0.00 0.00 0.00 94 1009.7
20260506123101 76 154 0.0 1.7 0.00 0.00 0.00 94 1009.7
20260506121602 76 154 0.0 1.7 0.00 0.00 0.00 94 1009.4
20260506120105 76 154 0.0 0.9 0.00 0.00 0.00 94 1009.2
20260506120002 76 154 0.0 0.9 0.00 0.00 0.00 94 1009.2
20260506114606 76 154 0.0 1.7 0.00 0.00 0.00 94 1009.2
20260506113100 76 154 0.0 1.7 0.00 0.00 0.00 94 1009.0
20260506111600 76 144 0.0 2.6 0.00 0.00 0.00 94 1008.8
20260506110002 76 153 0.9 5.2 0.00 0.00 0.00 94 1008.7
20260506104606 76 175 0.0 1.7 0.00 0.00 0.00 94 1008.6
20260506103107 76 175 0.0 0.9 0.00 0.00 0.00 93 1008.6
20260506101559 76 175 0.0 1.7 0.00 0.00 0.00 93 1008.7
20260506100109 76 175 0.0 2.6 0.00 0.00 0.00 93 1008.5
20260506100002 76 175 0.0 3.5 0.00 0.00 0.00 93 1008.5
20260506094605 76 196 0.0 2.6 0.00 0.00 0.00 93 1008.4
20260506093059 76 119 0.9 4.3 0.00 0.00 0.00 93 1008.3
20260506091557 76 153 0.9 3.5 0.00 0.00 0.00 93 1008.5
20260506090056 77 166 1.7 5.2 0.00 0.00 0.00 93 1008.6
20260506084600 77 168 1.7 4.3 0.00 0.00 0.00 93 1008.6
20260506083100 77 168 0.9 4.3 0.00 0.00 0.00 93 1008.8
20260506081609 77 139 0.9 4.3 0.00 0.00 0.00 93 1008.8
20260506073059 77 117 0.9 4.3 0.00 0.00 0.00 93 1009.1
20260506071559 77 167 0.9 4.3 0.00 0.00 0.00 93 1009.1
20260506061559 77 165 0.0 5.2 0.00 0.00 0.00 93 1009.4
20260506044559 78 157 0.0 4.3 0.00 0.00 0.00 92 1009.4
20260506043110 78 157 0.0 3.5 0.00 0.00 0.00 92 1009.5
20260506041559 78 164 0.0 3.5 0.00 0.00 0.00 91 1009.1
20260506040059 78 171 0.9 3.5 0.00 0.00 0.00 91 1009.3
20260506034615 78 192 0.9 6.1 0.00 0.00 0.00 91 1009.1
20260506033058 78 138 0.9 4.3 0.00 0.00 0.00 90 1008.8
20260506031606 78 158 1.7 4.3 0.00 0.00 0.00 90 1008.8
20260506030059 78 155 0.9 4.3 0.00 0.00 0.00 90 1008.8
20260506030003 78 146 1.7 4.3 0.00 0.00 0.00 90 1008.8
20260506024558 79 161 2.6 6.1 0.00 0.00 0.00 90 1008.5
20260506023105 79 166 1.7 6.1 0.00 0.00 0.00 90 1008.5
20260506021601 79 163 0.9 5.2 0.00 0.00 0.00 89 1008.2
20260506020059 79 163 2.6 7.8 0.00 0.00 0.00 89 1008.0
20260506014559 79 137 2.6 6.1 0.00 0.00 0.00 89 1007.8
20260506013110 79 139 0.9 4.3 0.00 0.00 0.00 88 1007.5
20260506011601 80 167 0.9 5.2 0.00 0.00 0.00 87 1007.2
20260506010120 80 175 2.6 7.0 0.00 0.00 0.00 87 1007.1
20260506004557 80 105 1.7 6.1 0.00 0.00 0.00 86 1007.1
20260506003117 80 192 2.6 6.1 0.00 0.00 0.00 86 1006.7
20260506000058 81 156 2.6 7.8 0.00 0.00 0.00 85 1007.0
20260505234558 81 167 1.7 8.7 0.00 0.00 0.00 85 1006.7
20260505233111 81 167 2.6 7.0 0.00 0.00 0.00 85 1006.8
20260505231559 82 205 3.5 10.4 0.00 0.00 0.00 84 1006.8
20260505230100 82 175 2.6 8.7 0.00 0.00 0.00 84 1006.8
20260505230002 82 118 2.6 8.7 0.00 0.00 0.00 84 1006.8
20260505224557 82 171 2.6 7.0 0.00 0.00 0.00 84 1006.8
20260505223059 82 155 3.5 6.1 0.00 0.00 0.00 84 1006.9
20260505221600 83 211 3.5 7.8 0.00 0.00 0.00 83 1006.8
20260505220100 83 205 3.5 7.0 0.00 0.00 0.00 83 1006.9
20260505214628 83 137 2.6 8.7 0.00 0.00 0.00 83 1007.2
20260505213109 83 177 4.3 10.4 0.00 0.00 0.00 82 1007.3
20260505211559 83 135 3.5 8.7 0.00 0.00 0.00 81 1007.7
20260505210059 83 211 5.2 11.3 0.00 0.00 0.00 82 1007.8
20260505210002 83 214 3.5 9.6 0.00 0.00 0.00 83 1007.8
20260505204600 83 184 3.5 9.6 0.00 0.00 0.00 83 1008.1
20260505203100 83 188 3.5 11.3 0.00 0.00 0.00 82 1008.2
20260505200100 83 209 4.3 10.4 0.00 0.00 0.00 83 1008.4
20260505200003 83 205 3.5 7.8 0.00 0.00 0.00 83 1008.5
20260505194559 83 180 3.5 8.7 0.00 0.00 0.00 83 1008.7
20260505193059 82 216 4.3 12.2 0.00 0.00 0.00 85 1008.8
20260505191608 82 170 3.5 8.7 0.00 0.00 0.00 85 1009.0
20260505190105 81 211 4.3 8.7 0.00 0.00 0.00 85 1008.8